WAL2687 KMIA-SMJP

Flight info

Callsign WAL2687
Flight time 4h 37m
Altitude 33000
Route KLADA2 JAGOR Y398 KNSLY A756 BODLO UA756 NOSOX UL337 NEGON L337 ARMUR UL337 POS UG449 GEKOS DCT
Aircraft MD83/M-VGDW/C

Departure

Time 2026-05-06 20:43
Airport Miami International Airport (KMIA)

Arrival

Time 2026-05-07 01:20
Airport Johan Adolf Pengel International Airport (SMJP)
Time Latitude Longitude Altitude Speed Heading
2026-05-06 20:31 25.79229 -80.28052 11 ft 0 kts 307°
2026-05-06 20:32 25.79217 -80.28035 11 ft 4 kts 307°
2026-05-06 20:33 25.79207 -80.28020 11 ft 1 kts 303°
2026-05-06 20:33 25.79201 -80.28008 11 ft 1 kts 287°
2026-05-06 20:33 25.79199 -80.27995 11 ft 1 kts 266°
2026-05-06 20:33 25.79201 -80.27982 11 ft 1 kts 245°
2026-05-06 20:34 25.79208 -80.27972 11 ft 1 kts 224°
2026-05-06 20:34 25.79215 -80.27965 11 ft 0 kts 217°
2026-05-06 20:37 25.79214 -80.27966 11 ft 0 kts 217°
2026-05-06 20:38 25.79201 -80.27975 11 ft 4 kts 215°
2026-05-06 20:38 25.79161 -80.28005 11 ft 9 kts 214°
2026-05-06 20:38 25.79094 -80.28058 11 ft 14 kts 217°
2026-05-06 20:38 25.79065 -80.28167 11 ft 18 kts 292°
2026-05-06 20:39 25.79129 -80.28300 11 ft 20 kts 298°
2026-05-06 20:39 25.79223 -80.28430 11 ft 22 kts 311°
2026-05-06 20:39 25.79308 -80.28583 11 ft 24 kts 298°
2026-05-06 20:39 25.79394 -80.28753 11 ft 26 kts 298°
2026-05-06 20:40 25.79489 -80.28938 11 ft 29 kts 300°
2026-05-06 20:40 25.79584 -80.29147 11 ft 30 kts 298°
2026-05-06 20:40 25.79696 -80.29352 11 ft 31 kts 303°
2026-05-06 20:40 25.79815 -80.29571 11 ft 34 kts 301°
2026-05-06 20:41 25.79920 -80.29800 11 ft 32 kts 293°
2026-05-06 20:41 25.79963 -80.29966 11 ft 12 kts 276°
2026-05-06 20:41 25.79963 -80.30059 11 ft 11 kts 266°
2026-05-06 20:41 25.79956 -80.30142 11 ft 10 kts 263°
2026-05-06 20:42 25.79919 -80.30189 11 ft 8 kts 164°
2026-05-06 20:42 25.79887 -80.30135 11 ft 13 kts 115°
2026-05-06 20:42 25.79743 -80.29846 11 ft 72 kts 120°
2026-05-06 20:42 25.79399 -80.29178 11 ft 126 kts 120°
2026-05-06 20:43 25.78882 -80.28163 22 ft 172 kts 120°
2026-05-06 20:43 25.78277 -80.26996 473 ft 179 kts 117°
2026-05-06 20:43 25.77723 -80.25705 917 ft 191 kts 116°
2026-05-06 20:43 25.77148 -80.24335 1361 ft 203 kts 108°
2026-05-06 20:44 25.77006 -80.22677 1675 ft 228 kts 92°
2026-05-06 20:44 25.76950 -80.20850 2145 ft 246 kts 92°
2026-05-06 20:44 25.76883 -80.19003 3161 ft 236 kts 94°
2026-05-06 20:44 25.76610 -80.17248 4066 ft 230 kts 107°
2026-05-06 20:45 25.76027 -80.15634 4865 ft 227 kts 118°
2026-05-06 20:45 25.75206 -80.14173 5589 ft 226 kts 122°
2026-05-06 20:45 25.74384 -80.12701 6276 ft 226 kts 121°
2026-05-06 20:45 25.73583 -80.11185 6902 ft 230 kts 117°
2026-05-06 20:46 25.72913 -80.09542 7442 ft 238 kts 110°
2026-05-06 20:46 25.72327 -80.07811 8035 ft 243 kts 110°
2026-05-06 20:46 25.71733 -80.06053 8655 ft 247 kts 110°
2026-05-06 20:46 25.71133 -80.04268 9289 ft 250 kts 110°
2026-05-06 20:47 25.70519 -80.02438 9790 ft 260 kts 110°
2026-05-06 20:47 25.69880 -80.00526 10302 ft 269 kts 110°
2026-05-06 20:47 25.69218 -79.98547 10880 ft 276 kts 110°
2026-05-06 20:47 25.68551 -79.96547 11482 ft 280 kts 110°
2026-05-06 20:48 25.67874 -79.94516 12093 ft 284 kts 110°
2026-05-06 20:48 25.67196 -79.92482 12694 ft 287 kts 110°
2026-05-06 20:48 25.66503 -79.90401 13291 ft 290 kts 110°
2026-05-06 20:48 25.65806 -79.88306 13874 ft 293 kts 110°
2026-05-06 20:49 25.65097 -79.86173 14447 ft 295 kts 110°
2026-05-06 20:49 25.64390 -79.84047 14999 ft 298 kts 110°
2026-05-06 20:49 25.63661 -79.81851 15331 ft 309 kts 110°
2026-05-06 20:49 25.62908 -79.79584 15701 ft 318 kts 110°
2026-05-06 20:50 25.62138 -79.77265 16054 ft 327 kts 110°
2026-05-06 20:50 25.61346 -79.74878 16425 ft 335 kts 110°
2026-05-06 20:50 25.60541 -79.72451 16854 ft 340 kts 110°
2026-05-06 20:50 25.59702 -79.69999 17311 ft 344 kts 112°
2026-05-06 20:51 25.58698 -79.67557 17783 ft 348 kts 116°
2026-05-06 20:51 25.57612 -79.65171 18249 ft 351 kts 116°
2026-05-06 20:51 25.56517 -79.62754 18709 ft 353 kts 116°
2026-05-06 20:51 25.55413 -79.60313 19159 ft 356 kts 116°
2026-05-06 20:52 25.54302 -79.57855 19599 ft 358 kts 116°
2026-05-06 20:52 25.53188 -79.55389 20025 ft 361 kts 116°
2026-05-06 20:52 25.52066 -79.52902 20442 ft 363 kts 116°
2026-05-06 20:52 25.50938 -79.50401 20848 ft 365 kts 116°
2026-05-06 20:53 25.49803 -79.47884 21235 ft 368 kts 116°
2026-05-06 20:53 25.48654 -79.45333 21461 ft 375 kts 116°
2026-05-06 20:53 25.47486 -79.42741 21748 ft 380 kts 116°
2026-05-06 20:53 25.46306 -79.40118 22071 ft 384 kts 116°
2026-05-06 20:54 25.45107 -79.37456 22412 ft 387 kts 116°
2026-05-06 20:54 25.43905 -79.34782 22757 ft 389 kts 116°
2026-05-06 20:54 25.42697 -79.32096 23100 ft 391 kts 116°
2026-05-06 20:54 25.41485 -79.29401 23437 ft 394 kts 116°
2026-05-06 20:55 25.40266 -79.26687 23768 ft 396 kts 116°
2026-05-06 20:55 25.39044 -79.23967 24091 ft 398 kts 116°
2026-05-06 20:55 25.37810 -79.21219 24409 ft 400 kts 116°
2026-05-06 20:55 25.36581 -79.18480 24718 ft 402 kts 116°
2026-05-06 20:56 25.35330 -79.15691 25024 ft 403 kts 116°
2026-05-06 20:56 25.34095 -79.12936 25317 ft 405 kts 116°
2026-05-06 20:56 25.32837 -79.10129 25608 ft 407 kts 116°
2026-05-06 20:56 25.31585 -79.07335 25890 ft 409 kts 116°
2026-05-06 20:57 25.30325 -79.04522 26166 ft 411 kts 116°
2026-05-06 20:57 25.29053 -79.01678 26438 ft 412 kts 116°
2026-05-06 20:57 25.27779 -78.98833 26702 ft 414 kts 116°
2026-05-06 20:57 25.26505 -78.95982 26959 ft 416 kts 116°
2026-05-06 20:58 25.25221 -78.93111 27211 ft 417 kts 116°
2026-05-06 20:58 25.23937 -78.90237 27455 ft 419 kts 116°
2026-05-06 20:58 25.22648 -78.87352 27693 ft 421 kts 116°
2026-05-06 20:58 25.21370 -78.84488 27923 ft 422 kts 116°
2026-05-06 20:59 25.20059 -78.81551 28151 ft 424 kts 116°
2026-05-06 20:59 25.18767 -78.78655 28369 ft 425 kts 116°
2026-05-06 20:59 25.17460 -78.75723 28583 ft 426 kts 116°
2026-05-06 20:59 25.16154 -78.72791 28790 ft 428 kts 116°
2026-05-06 21:00 25.14833 -78.69827 28993 ft 429 kts 116°
2026-05-06 21:00 25.13528 -78.66896 29187 ft 430 kts 116°
2026-05-06 21:00 25.12206 -78.63924 29377 ft 432 kts 116°
2026-05-06 21:00 25.10882 -78.60949 29561 ft 433 kts 116°
2026-05-06 21:01 25.09516 -78.57982 29736 ft 434 kts 119°
2026-05-06 21:01 25.08045 -78.55052 29911 ft 435 kts 118°
2026-05-06 21:01 25.06597 -78.52158 30077 ft 437 kts 118°
2026-05-06 21:01 25.05122 -78.49204 30240 ft 438 kts 118°
2026-05-06 21:02 25.03665 -78.46286 30394 ft 439 kts 118°
2026-05-06 21:02 25.02205 -78.43358 30544 ft 440 kts 118°
2026-05-06 21:02 25.00721 -78.40382 30690 ft 441 kts 118°
2026-05-06 21:02 24.99259 -78.37447 30828 ft 442 kts 118°
2026-05-06 21:03 24.97771 -78.34460 30962 ft 441 kts 119°
2026-05-06 21:03 24.94839 -78.28570 30998 ft 438 kts 119°
2026-05-06 21:04 24.91913 -78.22688 31002 ft 441 kts 119°
2026-05-06 21:04 24.88962 -78.16750 31001 ft 443 kts 118°
2026-05-06 21:05 24.86013 -78.10811 31000 ft 443 kts 118°
2026-05-06 21:05 24.83071 -78.04882 31000 ft 443 kts 118°
2026-05-06 21:06 24.80106 -77.98901 31000 ft 443 kts 118°
2026-05-06 21:06 24.77169 -77.92973 30999 ft 442 kts 118°
2026-05-06 21:07 24.74236 -77.87048 30999 ft 442 kts 118°
2026-05-06 21:07 24.71320 -77.81151 31000 ft 441 kts 118°
2026-05-06 21:08 24.68357 -77.75249 30997 ft 441 kts 122°
2026-05-06 21:08 24.64560 -77.69943 31002 ft 441 kts 135°
2026-05-06 21:09 24.60203 -77.65250 31000 ft 442 kts 135°
2026-05-06 21:09 24.55828 -77.60548 31000 ft 442 kts 135°
2026-05-06 21:10 24.51448 -77.55840 31000 ft 441 kts 135°
2026-05-06 21:10 24.47068 -77.51132 31000 ft 441 kts 135°
2026-05-06 21:11 24.42676 -77.46407 31000 ft 441 kts 135°
2026-05-06 21:11 24.38316 -77.41716 31000 ft 441 kts 135°
2026-05-06 21:12 24.33934 -77.36999 31000 ft 441 kts 135°
2026-05-06 21:12 24.29563 -77.32292 31000 ft 441 kts 135°
2026-05-06 21:13 24.25192 -77.27583 31000 ft 441 kts 135°
2026-05-06 21:13 24.20839 -77.22890 31000 ft 441 kts 135°
2026-05-06 21:14 24.16473 -77.18182 31000 ft 441 kts 135°
2026-05-06 21:14 24.12109 -77.13475 31000 ft 441 kts 135°
2026-05-06 21:15 24.07736 -77.08755 31000 ft 441 kts 135°
2026-05-06 21:15 24.03364 -77.04035 31000 ft 441 kts 135°
2026-05-06 21:16 23.99030 -76.99353 31000 ft 441 kts 135°
2026-05-06 21:16 23.94646 -76.94616 31000 ft 441 kts 135°
2026-05-06 21:17 23.90301 -76.89919 31000 ft 441 kts 135°
2026-05-06 21:17 23.85930 -76.85192 31000 ft 441 kts 135°
2026-05-06 21:18 23.81589 -76.80496 31000 ft 441 kts 135°
2026-05-06 21:18 23.77239 -76.75787 31000 ft 441 kts 135°
2026-05-06 21:19 23.72894 -76.71083 31000 ft 441 kts 135°
2026-05-06 21:19 23.68541 -76.66367 31000 ft 441 kts 135°
2026-05-06 21:20 23.64180 -76.61642 31000 ft 441 kts 135°
2026-05-06 21:20 23.59854 -76.56952 31000 ft 441 kts 135°
2026-05-06 21:21 23.55505 -76.52235 31000 ft 441 kts 135°
2026-05-06 21:21 23.51173 -76.47535 31000 ft 441 kts 135°
2026-05-06 21:22 23.46822 -76.42812 31000 ft 441 kts 135°
2026-05-06 21:22 23.42492 -76.38111 31000 ft 441 kts 135°
2026-05-06 21:23 23.38144 -76.33388 31000 ft 441 kts 135°
2026-05-06 21:23 23.33797 -76.28664 31000 ft 441 kts 135°
2026-05-06 21:24 23.29462 -76.23951 31000 ft 441 kts 135°
2026-05-06 21:24 23.25151 -76.19263 31000 ft 441 kts 135°
2026-05-06 21:25 23.20795 -76.14524 31000 ft 441 kts 135°
2026-05-06 21:25 23.16463 -76.09808 31000 ft 441 kts 135°
2026-05-06 21:26 23.12152 -76.05115 31000 ft 441 kts 135°
2026-05-06 21:26 23.07818 -76.00394 31000 ft 441 kts 135°
2026-05-06 21:27 23.03490 -75.95679 31000 ft 441 kts 135°
2026-05-06 21:27 22.99161 -75.90960 31000 ft 441 kts 135°
2026-05-06 21:28 22.94852 -75.86261 31000 ft 441 kts 135°
2026-05-06 21:28 22.90531 -75.81548 31000 ft 441 kts 135°
2026-05-06 21:29 22.86196 -75.76817 31000 ft 441 kts 135°
2026-05-06 21:29 22.81868 -75.72092 31000 ft 441 kts 135°
2026-05-06 21:30 22.77550 -75.67376 31000 ft 441 kts 135°
2026-05-06 21:30 22.73246 -75.62674 31000 ft 441 kts 134°
2026-05-06 21:31 22.68931 -75.57958 31000 ft 441 kts 134°
2026-05-06 21:31 22.64598 -75.53222 31000 ft 441 kts 134°
2026-05-06 21:32 22.60302 -75.48523 31000 ft 441 kts 134°
2026-05-06 21:32 22.53851 -75.41464 31000 ft 441 kts 134°
2026-05-06 21:33 22.49542 -75.36747 31000 ft 441 kts 134°
2026-05-06 21:33 22.45234 -75.32029 31000 ft 441 kts 135°
2026-05-06 21:34 22.40912 -75.27294 31000 ft 441 kts 135°
2026-05-06 21:34 22.36625 -75.22597 31000 ft 441 kts 135°
2026-05-06 21:35 22.32311 -75.17866 31000 ft 441 kts 135°
2026-05-06 21:35 22.28038 -75.13180 31000 ft 441 kts 135°
2026-05-06 21:36 22.23726 -75.08450 31000 ft 441 kts 134°
2026-05-06 21:36 22.19446 -75.03753 31000 ft 441 kts 134°
2026-05-06 21:37 22.15135 -74.99020 31000 ft 441 kts 134°
2026-05-06 21:37 22.10838 -74.94301 31000 ft 441 kts 134°
2026-05-06 21:38 22.06551 -74.89592 31000 ft 441 kts 134°
2026-05-06 21:38 22.02255 -74.84871 31000 ft 441 kts 134°
2026-05-06 21:39 21.97961 -74.80150 31000 ft 441 kts 134°
2026-05-06 21:39 21.93656 -74.75415 31000 ft 441 kts 134°
2026-05-06 21:40 21.89350 -74.70678 31000 ft 441 kts 134°
2026-05-06 21:40 21.85091 -74.65992 31000 ft 441 kts 134°
2026-05-06 21:41 21.80777 -74.61242 31000 ft 441 kts 134°
2026-05-06 21:41 21.76498 -74.56531 31000 ft 441 kts 134°
2026-05-06 21:42 21.72240 -74.51839 31000 ft 441 kts 134°
2026-05-06 21:42 21.67948 -74.47111 31000 ft 441 kts 134°
2026-05-06 21:43 21.63665 -74.42389 31000 ft 441 kts 134°
2026-05-06 21:43 21.59383 -74.37666 31000 ft 441 kts 134°
2026-05-06 21:44 21.55115 -74.32959 31000 ft 441 kts 134°
2026-05-06 21:44 21.50841 -74.28243 31000 ft 441 kts 134°
2026-05-06 21:45 21.46548 -74.23505 31000 ft 441 kts 134°
2026-05-06 21:45 21.42269 -74.18780 31000 ft 441 kts 134°
2026-05-06 21:46 21.38000 -74.14065 31000 ft 441 kts 134°
2026-05-06 21:46 21.33727 -74.09344 31000 ft 441 kts 134°
2026-05-06 21:47 21.29471 -74.04639 31000 ft 441 kts 134°
2026-05-06 21:47 21.25192 -73.99910 31000 ft 441 kts 134°
2026-05-06 21:48 21.20925 -73.95190 31000 ft 441 kts 134°
2026-05-06 21:48 21.16670 -73.90484 31000 ft 441 kts 134°
2026-05-06 21:49 21.12409 -73.85768 31000 ft 441 kts 134°
2026-05-06 21:49 21.08139 -73.81042 31000 ft 441 kts 134°
2026-05-06 21:50 21.03878 -73.76323 31000 ft 441 kts 134°
2026-05-06 21:50 20.99628 -73.71616 31000 ft 441 kts 134°
2026-05-06 21:51 20.95386 -73.66892 30996 ft 441 kts 131°
2026-05-06 21:51 20.91340 -73.61967 31000 ft 441 kts 131°
2026-05-06 21:52 20.87265 -73.57051 31000 ft 441 kts 131°
2026-05-06 21:52 20.83199 -73.52153 31000 ft 441 kts 131°
2026-05-06 21:53 20.79145 -73.47270 31000 ft 441 kts 131°
2026-05-06 21:53 20.75058 -73.42346 31000 ft 441 kts 131°
2026-05-06 21:54 20.71008 -73.37466 31000 ft 441 kts 131°
2026-05-06 21:54 20.66928 -73.32547 31000 ft 441 kts 131°
2026-05-06 21:55 20.62879 -73.27663 31000 ft 441 kts 131°
2026-05-06 21:55 20.58817 -73.22764 31000 ft 441 kts 131°
2026-05-06 21:56 20.54753 -73.17859 31000 ft 441 kts 131°
2026-05-06 21:56 20.50704 -73.12971 31000 ft 441 kts 131°
2026-05-06 21:57 20.46643 -73.08067 31000 ft 441 kts 131°
2026-05-06 21:57 20.42590 -73.03170 31000 ft 441 kts 131°
2026-05-06 21:58 20.38528 -72.98268 31000 ft 441 kts 131°
2026-05-06 21:58 20.34467 -72.93381 31000 ft 441 kts 131°
2026-05-06 21:59 20.30409 -72.88500 31000 ft 441 kts 131°
2026-05-06 21:59 20.26349 -72.83615 31000 ft 441 kts 131°
2026-05-06 22:00 20.22275 -72.78713 31000 ft 441 kts 131°
2026-05-06 22:00 20.18209 -72.73817 31000 ft 441 kts 131°
2026-05-06 22:01 20.14150 -72.68931 31000 ft 441 kts 131°
2026-05-06 22:01 20.10091 -72.64041 30999 ft 441 kts 131°
2026-05-06 22:02 20.06318 -72.58920 31000 ft 442 kts 128°
2026-05-06 22:02 20.02498 -72.53867 31000 ft 441 kts 129°
2026-05-06 22:03 19.98622 -72.48783 31000 ft 441 kts 129°
2026-05-06 22:03 19.94765 -72.43730 31000 ft 441 kts 129°
2026-05-06 22:04 19.90910 -72.38682 31000 ft 441 kts 129°
2026-05-06 22:04 19.87045 -72.33617 31000 ft 441 kts 129°
2026-05-06 22:05 19.83204 -72.28581 31000 ft 441 kts 129°
2026-05-06 22:05 19.79325 -72.23494 31000 ft 441 kts 129°
2026-05-06 22:06 19.75483 -72.18452 31000 ft 441 kts 129°
2026-05-06 22:06 19.71626 -72.13389 31000 ft 441 kts 129°
2026-05-06 22:07 19.67798 -72.08361 31000 ft 441 kts 129°
2026-05-06 22:07 19.63940 -72.03292 31000 ft 441 kts 129°
2026-05-06 22:08 19.60100 -71.98244 31000 ft 441 kts 129°
2026-05-06 22:08 19.56241 -71.93168 31000 ft 441 kts 129°
2026-05-06 22:09 19.52411 -71.88128 31000 ft 441 kts 129°
2026-05-06 22:09 19.48569 -71.83071 31000 ft 441 kts 129°
2026-05-06 22:10 19.44730 -71.78014 31000 ft 441 kts 129°
2026-05-06 22:10 19.40899 -71.72966 31000 ft 441 kts 129°
2026-05-06 22:11 19.37043 -71.67883 31000 ft 441 kts 129°
2026-05-06 22:11 19.33214 -71.62833 31000 ft 441 kts 128°
2026-05-06 22:12 19.29383 -71.57778 31000 ft 441 kts 128°
2026-05-06 22:12 19.25553 -71.52723 31000 ft 441 kts 128°
2026-05-06 22:13 19.21707 -71.47643 31000 ft 441 kts 128°
2026-05-06 22:13 19.17883 -71.42590 31000 ft 441 kts 128°
2026-05-06 22:14 19.14056 -71.37533 31000 ft 441 kts 128°
2026-05-06 22:14 19.10221 -71.32461 31000 ft 441 kts 129°
2026-05-06 22:15 19.06411 -71.27422 31000 ft 441 kts 129°
2026-05-06 22:15 19.02570 -71.22338 31000 ft 441 kts 129°
2026-05-06 22:16 18.98763 -71.17297 31000 ft 441 kts 129°
2026-05-06 22:16 18.94935 -71.12225 31000 ft 441 kts 128°
2026-05-06 22:17 18.91112 -71.07159 31000 ft 441 kts 128°
2026-05-06 22:17 18.87302 -71.02107 31000 ft 441 kts 128°
2026-05-06 22:18 18.83475 -70.97031 31000 ft 441 kts 128°
2026-05-06 22:18 18.79666 -70.91977 31000 ft 441 kts 128°
2026-05-06 22:19 18.75854 -70.86916 31000 ft 441 kts 128°
2026-05-06 22:19 18.72036 -70.81846 31000 ft 441 kts 128°
2026-05-06 22:20 18.68244 -70.76807 31000 ft 441 kts 128°
2026-05-06 22:20 18.64432 -70.71741 31000 ft 441 kts 128°
2026-05-06 22:21 18.60616 -70.66666 31000 ft 441 kts 128°
2026-05-06 22:21 18.56831 -70.61630 31000 ft 441 kts 128°
2026-05-06 22:22 18.53009 -70.56543 31000 ft 441 kts 128°
2026-05-06 22:22 18.49219 -70.51498 31000 ft 441 kts 128°
2026-05-06 22:23 18.45427 -70.46447 31000 ft 441 kts 128°
2026-05-06 22:23 18.41611 -70.41361 31000 ft 441 kts 128°
2026-05-06 22:24 18.37819 -70.36306 31000 ft 441 kts 128°
2026-05-06 22:24 18.34035 -70.31259 31000 ft 441 kts 128°
2026-05-06 22:25 18.30231 -70.26185 31000 ft 441 kts 128°
2026-05-06 22:25 18.26447 -70.21134 31000 ft 441 kts 128°
2026-05-06 22:26 18.22652 -70.16067 31000 ft 441 kts 128°
2026-05-06 22:26 18.18871 -70.11016 31000 ft 441 kts 128°
2026-05-06 22:27 18.15062 -70.05926 31000 ft 441 kts 128°
2026-05-06 22:27 18.11296 -70.00891 31000 ft 441 kts 128°
2026-05-06 22:28 18.07498 -69.95812 31000 ft 441 kts 128°
2026-05-06 22:28 18.03717 -69.90753 31000 ft 441 kts 128°
2026-05-06 22:29 17.99926 -69.85679 31000 ft 441 kts 128°
2026-05-06 22:29 17.96154 -69.80629 31000 ft 441 kts 128°
2026-05-06 22:30 17.92350 -69.75532 31000 ft 441 kts 128°
2026-05-06 22:30 17.88572 -69.70470 31000 ft 441 kts 128°
2026-05-06 22:31 17.84809 -69.65427 31000 ft 441 kts 128°
2026-05-06 22:31 17.81012 -69.60335 31000 ft 441 kts 128°
2026-05-06 22:32 17.77248 -69.55285 31000 ft 441 kts 128°
2026-05-06 22:32 17.73454 -69.50192 31000 ft 441 kts 128°
2026-05-06 22:33 17.69699 -69.45152 31000 ft 441 kts 128°
2026-05-06 22:33 17.65919 -69.40073 31000 ft 441 kts 128°
2026-05-06 22:34 17.62149 -69.35009 31000 ft 441 kts 128°
2026-05-06 22:34 17.58376 -69.29937 31000 ft 441 kts 128°
2026-05-06 22:35 17.54611 -69.24874 31000 ft 441 kts 128°
2026-05-06 22:35 17.50855 -69.19822 31000 ft 441 kts 128°
2026-05-06 22:36 17.47081 -69.14745 31000 ft 441 kts 128°
2026-05-06 22:36 17.43310 -69.09669 31000 ft 441 kts 128°
2026-05-06 22:37 17.39560 -69.04618 31000 ft 441 kts 128°
2026-05-06 22:37 17.35777 -68.99522 31000 ft 441 kts 128°
2026-05-06 22:38 17.32026 -68.94468 31000 ft 441 kts 128°
2026-05-06 22:38 17.28263 -68.89395 31000 ft 441 kts 128°
2026-05-06 22:39 17.24523 -68.84351 31000 ft 441 kts 128°
2026-05-06 22:39 17.20759 -68.79274 31000 ft 441 kts 128°
2026-05-06 22:40 17.17004 -68.74206 31000 ft 441 kts 128°
2026-05-06 22:40 17.13252 -68.69141 31000 ft 441 kts 128°
2026-05-06 22:41 17.07605 -68.61513 31000 ft 441 kts 128°
2026-05-06 22:42 17.03869 -68.56466 31000 ft 441 kts 128°
2026-05-06 22:42 17.00127 -68.51407 31000 ft 441 kts 127°
2026-05-06 22:43 16.96363 -68.46317 31000 ft 441 kts 127°
2026-05-06 22:43 16.92632 -68.41271 31000 ft 441 kts 127°
2026-05-06 22:44 16.88868 -68.36179 31000 ft 441 kts 127°
2026-05-06 22:44 16.85113 -68.31095 31000 ft 441 kts 128°
2026-05-06 22:45 16.81364 -68.26020 31000 ft 441 kts 128°
2026-05-06 22:45 16.77623 -68.20953 31000 ft 441 kts 128°
2026-05-06 22:46 16.73878 -68.15879 31000 ft 441 kts 128°
2026-05-06 22:46 16.70142 -68.10815 31000 ft 441 kts 128°
2026-05-06 22:47 16.66409 -68.05753 31000 ft 441 kts 128°
2026-05-06 22:47 16.62663 -68.00673 31000 ft 441 kts 127°
2026-05-06 22:48 16.58808 -67.95721 31000 ft 441 kts 129°
2026-05-06 22:48 16.54899 -67.90794 31000 ft 441 kts 129°
2026-05-06 22:49 16.50991 -67.85867 31000 ft 441 kts 129°
2026-05-06 22:49 16.47075 -67.80928 31000 ft 441 kts 129°
2026-05-06 22:50 16.43178 -67.76011 31000 ft 441 kts 129°
2026-05-06 22:50 16.39266 -67.71074 31000 ft 441 kts 129°
2026-05-06 22:51 16.35362 -67.66145 31000 ft 441 kts 129°
2026-05-06 22:51 16.31465 -67.61223 31000 ft 441 kts 129°
2026-05-06 22:52 16.27560 -67.56290 31000 ft 441 kts 129°
2026-05-06 22:52 16.23662 -67.51364 31000 ft 441 kts 129°
2026-05-06 22:53 16.19768 -67.46442 31000 ft 441 kts 129°
2026-05-06 22:53 16.15868 -67.41510 31000 ft 441 kts 129°
2026-05-06 22:54 16.11955 -67.36561 31000 ft 441 kts 129°
2026-05-06 22:54 16.08040 -67.31608 31000 ft 441 kts 129°
2026-05-06 22:55 16.04141 -67.26673 31000 ft 441 kts 129°
2026-05-06 22:55 16.00231 -67.21723 31000 ft 441 kts 129°
2026-05-06 22:56 15.96324 -67.16774 31000 ft 441 kts 129°
2026-05-06 22:56 15.92419 -67.11829 31000 ft 441 kts 129°
2026-05-06 22:57 15.88536 -67.06907 31000 ft 441 kts 129°
2026-05-06 22:57 15.84648 -67.01979 31000 ft 441 kts 129°
2026-05-06 22:58 15.80786 -66.97083 31000 ft 441 kts 129°
2026-05-06 22:58 15.76890 -66.92140 31000 ft 441 kts 129°
2026-05-06 22:59 15.73014 -66.87223 31000 ft 441 kts 129°
2026-05-06 22:59 15.69136 -66.82302 31000 ft 441 kts 129°
2026-05-06 23:00 15.65233 -66.77348 31000 ft 441 kts 129°
2026-05-06 23:00 15.61352 -66.72420 31000 ft 441 kts 129°
2026-05-06 23:01 15.57494 -66.67520 31000 ft 441 kts 129°
2026-05-06 23:01 15.53526 -66.62627 31000 ft 441 kts 133°
2026-05-06 23:02 15.49229 -66.58106 31000 ft 441 kts 135°
2026-05-06 23:02 15.44890 -66.53575 31000 ft 441 kts 134°
2026-05-06 23:03 15.40589 -66.49070 31000 ft 441 kts 134°
2026-05-06 23:03 15.36249 -66.44520 31000 ft 441 kts 134°
2026-05-06 23:04 15.31935 -66.39996 31000 ft 441 kts 134°
2026-05-06 23:04 15.27643 -66.35493 31000 ft 441 kts 134°
2026-05-06 23:05 15.23323 -66.30961 31000 ft 441 kts 135°
2026-05-06 23:05 15.19020 -66.26445 31000 ft 441 kts 135°
2026-05-06 23:06 15.14699 -66.21909 31000 ft 441 kts 135°
2026-05-06 23:06 15.10393 -66.17389 31000 ft 441 kts 135°
2026-05-06 23:07 15.06085 -66.12865 31000 ft 441 kts 135°
2026-05-06 23:07 15.01803 -66.08352 31260 ft 435 kts 135°
2026-05-06 23:07 14.99689 -66.06139 31422 ft 431 kts 135°
2026-05-06 23:08 14.97607 -66.03967 31584 ft 428 kts 135°
2026-05-06 23:08 14.95499 -66.01772 31749 ft 424 kts 135°
2026-05-06 23:08 14.93435 -65.99625 31912 ft 421 kts 135°
2026-05-06 23:08 14.91390 -65.97495 32075 ft 418 kts 135°
2026-05-06 23:09 14.89351 -65.95373 32238 ft 415 kts 135°
2026-05-06 23:09 14.87323 -65.93264 32402 ft 412 kts 135°
2026-05-06 23:09 14.85310 -65.91169 32566 ft 409 kts 135°
2026-05-06 23:09 14.83313 -65.89090 32730 ft 406 kts 135°
2026-05-06 23:10 14.81326 -65.87022 32894 ft 402 kts 135°
2026-05-06 23:10 14.77376 -65.82909 32997 ft 403 kts 135°
2026-05-06 23:11 14.73425 -65.78794 33002 ft 405 kts 135°
2026-05-06 23:11 14.69448 -65.74652 33002 ft 408 kts 135°
2026-05-06 23:12 14.65439 -65.70475 33002 ft 410 kts 135°
2026-05-06 23:12 14.61395 -65.66260 33002 ft 413 kts 135°
2026-05-06 23:13 14.57346 -65.62041 33001 ft 415 kts 135°
2026-05-06 23:13 14.53289 -65.57810 33052 ft 415 kts 134°
2026-05-06 23:14 14.49219 -65.53566 33067 ft 417 kts 134°
2026-05-06 23:14 14.45135 -65.49306 33072 ft 418 kts 134°
2026-05-06 23:15 14.41061 -65.45055 33077 ft 420 kts 134°
2026-05-06 23:15 14.36938 -65.40753 33081 ft 421 kts 134°
2026-05-06 23:16 14.32840 -65.36475 33084 ft 422 kts 134°
2026-05-06 23:16 14.28699 -65.32152 33088 ft 423 kts 135°
2026-05-06 23:17 14.24570 -65.27840 33091 ft 424 kts 135°
2026-05-06 23:17 14.20421 -65.23505 33094 ft 425 kts 135°
2026-05-06 23:18 14.16273 -65.19173 33096 ft 426 kts 135°
2026-05-06 23:18 14.12111 -65.14824 33099 ft 427 kts 135°
2026-05-06 23:19 14.07957 -65.10481 33101 ft 427 kts 135°
2026-05-06 23:19 14.03786 -65.06121 33102 ft 428 kts 134°
2026-05-06 23:20 13.99630 -65.01775 33104 ft 428 kts 134°
2026-05-06 23:20 13.95437 -64.97388 33106 ft 429 kts 134°
2026-05-06 23:21 13.91277 -64.93037 33107 ft 429 kts 134°
2026-05-06 23:21 13.87085 -64.88650 33108 ft 430 kts 134°
2026-05-06 23:22 13.82884 -64.84255 33109 ft 430 kts 134°
2026-05-06 23:22 13.78691 -64.79864 33111 ft 430 kts 134°
2026-05-06 23:23 13.74495 -64.75472 33112 ft 431 kts 134°
2026-05-06 23:23 13.70304 -64.71082 33112 ft 431 kts 134°
2026-05-06 23:24 13.66110 -64.66688 33113 ft 431 kts 134°
2026-05-06 23:24 13.61923 -64.62302 33114 ft 431 kts 134°
2026-05-06 23:25 13.57714 -64.57891 33115 ft 431 kts 134°
2026-05-06 23:25 13.53526 -64.53502 33115 ft 432 kts 134°
2026-05-06 23:26 13.49328 -64.49101 33116 ft 432 kts 134°
2026-05-06 23:26 13.45126 -64.44694 33117 ft 432 kts 134°
2026-05-06 23:27 13.40912 -64.40276 33117 ft 432 kts 134°
2026-05-06 23:27 13.36739 -64.35898 33118 ft 432 kts 134°
2026-05-06 23:28 13.32518 -64.31469 33118 ft 432 kts 134°
2026-05-06 23:28 13.28324 -64.27068 33119 ft 432 kts 134°
2026-05-06 23:29 13.24137 -64.22672 33119 ft 432 kts 134°
2026-05-06 23:29 13.19946 -64.18273 33120 ft 433 kts 134°
2026-05-06 23:30 13.15752 -64.13869 33120 ft 433 kts 134°
2026-05-06 23:30 13.11540 -64.09446 33121 ft 433 kts 134°
2026-05-06 23:31 13.07348 -64.05043 33121 ft 433 kts 134°
2026-05-06 23:31 13.03133 -64.00614 33121 ft 433 kts 134°
2026-05-06 23:32 12.98944 -63.96212 33122 ft 433 kts 134°
2026-05-06 23:32 12.94747 -63.91801 33122 ft 433 kts 134°
2026-05-06 23:33 12.90553 -63.87392 33122 ft 433 kts 134°
2026-05-06 23:33 12.86332 -63.82955 33123 ft 433 kts 134°
2026-05-06 23:34 12.82125 -63.78530 33123 ft 433 kts 134°
2026-05-06 23:34 12.77931 -63.74156 33123 ft 433 kts 135°
2026-05-06 23:35 12.73678 -63.69794 33124 ft 433 kts 135°
2026-05-06 23:35 12.69414 -63.65419 33124 ft 433 kts 135°
2026-05-06 23:36 12.65164 -63.61057 33125 ft 433 kts 135°
2026-05-06 23:36 12.60898 -63.56678 33125 ft 433 kts 135°
2026-05-06 23:37 12.56654 -63.52321 33125 ft 434 kts 135°
2026-05-06 23:37 12.52412 -63.47964 33126 ft 434 kts 135°
2026-05-06 23:38 12.48163 -63.43601 33126 ft 434 kts 135°
2026-05-06 23:38 12.43907 -63.39238 33127 ft 434 kts 135°
2026-05-06 23:39 12.39630 -63.34904 33127 ft 434 kts 135°
2026-05-06 23:39 12.35328 -63.30556 33127 ft 434 kts 135°
2026-05-06 23:40 12.31028 -63.26212 33128 ft 434 kts 135°
2026-05-06 23:40 12.26757 -63.21899 33128 ft 434 kts 135°
2026-05-06 23:41 12.22478 -63.17576 33128 ft 434 kts 135°
2026-05-06 23:41 12.18190 -63.13243 33129 ft 434 kts 135°
2026-05-06 23:42 12.13911 -63.08918 33129 ft 434 kts 135°
2026-05-06 23:42 12.09610 -63.04569 33129 ft 434 kts 135°
2026-05-06 23:43 12.05340 -63.00252 33130 ft 434 kts 135°
2026-05-06 23:43 12.01033 -62.95897 33130 ft 434 kts 135°
2026-05-06 23:44 11.96770 -62.91585 33130 ft 434 kts 135°
2026-05-06 23:44 11.92471 -62.87235 33131 ft 434 kts 135°
2026-05-06 23:45 11.88184 -62.82896 33131 ft 435 kts 135°
2026-05-06 23:45 11.83912 -62.78573 33131 ft 435 kts 135°
2026-05-06 23:46 11.79624 -62.74233 33132 ft 435 kts 135°
2026-05-06 23:46 11.75331 -62.69886 33132 ft 435 kts 135°
2026-05-06 23:47 11.71051 -62.65551 33133 ft 435 kts 135°
2026-05-06 23:47 11.66761 -62.61207 33133 ft 435 kts 135°
2026-05-06 23:48 11.62482 -62.56871 33133 ft 435 kts 135°
2026-05-06 23:48 11.58201 -62.52535 33134 ft 435 kts 135°
2026-05-06 23:49 11.53914 -62.48190 33134 ft 435 kts 135°
2026-05-06 23:49 11.49625 -62.43842 33134 ft 435 kts 135°
2026-05-06 23:50 11.45357 -62.39515 33135 ft 435 kts 135°
2026-05-06 23:50 11.38923 -62.32991 33135 ft 435 kts 135°
2026-05-06 23:51 11.34669 -62.28677 33135 ft 435 kts 135°
2026-05-06 23:51 11.30367 -62.24313 33136 ft 435 kts 135°
2026-05-06 23:52 11.26077 -62.19960 33136 ft 435 kts 135°
2026-05-06 23:52 11.21806 -62.15626 33136 ft 435 kts 135°
2026-05-06 23:53 11.17527 -62.11283 33137 ft 436 kts 135°
2026-05-06 23:53 11.13242 -62.06933 33137 ft 436 kts 135°
2026-05-06 23:54 11.08968 -62.02594 33137 ft 436 kts 135°
2026-05-06 23:54 11.04693 -61.98253 33138 ft 436 kts 135°
2026-05-06 23:55 11.00411 -61.93905 33138 ft 436 kts 135°
2026-05-06 23:55 10.96111 -61.89536 33138 ft 436 kts 135°
2026-05-06 23:56 10.91818 -61.85175 33139 ft 436 kts 135°
2026-05-06 23:56 10.87559 -61.80848 33139 ft 436 kts 135°
2026-05-06 23:57 10.83261 -61.76480 33139 ft 436 kts 135°
2026-05-06 23:57 10.78987 -61.72136 33140 ft 436 kts 135°
2026-05-06 23:58 10.74706 -61.67784 33140 ft 436 kts 135°
2026-05-06 23:58 10.70417 -61.63423 33140 ft 436 kts 135°
2026-05-06 23:59 10.66135 -61.59069 33141 ft 436 kts 135°
2026-05-06 23:59 10.61876 -61.54738 33141 ft 436 kts 135°
2026-05-07 00:00 10.57593 -61.50382 33141 ft 436 kts 135°
2026-05-07 00:00 10.53297 -61.46012 33142 ft 436 kts 135°
2026-05-07 00:01 10.49031 -61.41671 33142 ft 436 kts 135°
2026-05-07 00:01 10.44900 -61.37197 33136 ft 436 kts 128°
2026-05-07 00:02 10.41114 -61.32389 33150 ft 436 kts 129°
2026-05-07 00:02 10.37299 -61.27638 33151 ft 436 kts 129°
2026-05-07 00:03 10.33456 -61.22870 33151 ft 436 kts 129°
2026-05-07 00:03 10.29627 -61.18123 33152 ft 436 kts 129°
2026-05-07 00:04 10.25767 -61.13337 33152 ft 436 kts 129°
2026-05-07 00:04 10.21928 -61.08576 33153 ft 437 kts 129°
2026-05-07 00:05 10.18104 -61.03831 33153 ft 437 kts 129°
2026-05-07 00:05 10.14270 -60.99075 33153 ft 437 kts 129°
2026-05-07 00:06 10.10435 -60.94315 33154 ft 437 kts 129°
2026-05-07 00:06 10.06579 -60.89529 33154 ft 437 kts 129°
2026-05-07 00:07 10.02755 -60.84779 33154 ft 437 kts 129°
2026-05-07 00:07 9.98925 -60.80022 33155 ft 437 kts 129°
2026-05-07 00:08 9.95075 -60.75240 33155 ft 437 kts 129°
2026-05-07 00:08 9.91238 -60.70471 33155 ft 437 kts 129°
2026-05-07 00:09 9.87406 -60.65708 33156 ft 437 kts 129°
2026-05-07 00:09 9.83570 -60.60940 33156 ft 437 kts 129°
2026-05-07 00:10 9.79722 -60.56154 33156 ft 437 kts 129°
2026-05-07 00:10 9.75907 -60.51409 33157 ft 437 kts 129°
2026-05-07 00:11 9.72072 -60.46637 33157 ft 437 kts 129°
2026-05-07 00:11 9.68220 -60.41843 33157 ft 437 kts 129°
2026-05-07 00:12 9.64378 -60.37062 33158 ft 437 kts 129°
2026-05-07 00:12 9.60563 -60.32311 33158 ft 438 kts 129°
2026-05-07 00:13 9.56712 -60.27516 33158 ft 438 kts 129°
2026-05-07 00:13 9.52893 -60.22758 33159 ft 438 kts 129°
2026-05-07 00:14 9.49063 -60.17988 33159 ft 438 kts 129°
2026-05-07 00:14 9.45221 -60.13200 33159 ft 438 kts 129°
2026-05-07 00:15 9.41382 -60.08414 33160 ft 438 kts 129°
2026-05-07 00:15 9.37549 -60.03635 33160 ft 438 kts 129°
2026-05-07 00:16 9.33715 -59.98854 33160 ft 438 kts 129°
2026-05-07 00:16 9.29895 -59.94091 33161 ft 438 kts 129°
2026-05-07 00:17 9.26044 -59.89286 33161 ft 438 kts 129°
2026-05-07 00:17 9.22215 -59.84508 33161 ft 438 kts 129°
2026-05-07 00:18 9.18403 -59.79750 33162 ft 438 kts 129°
2026-05-07 00:18 9.14562 -59.74955 33162 ft 438 kts 129°
2026-05-07 00:19 9.10734 -59.70175 33162 ft 438 kts 129°
2026-05-07 00:19 9.06895 -59.65381 33162 ft 438 kts 129°
2026-05-07 00:20 9.03078 -59.60614 33163 ft 438 kts 129°
2026-05-07 00:20 8.99244 -59.55824 33163 ft 438 kts 129°
2026-05-07 00:21 8.95425 -59.51051 33163 ft 438 kts 129°
2026-05-07 00:21 8.91569 -59.46231 33164 ft 438 kts 129°
2026-05-07 00:22 8.87737 -59.41442 33164 ft 439 kts 129°
2026-05-07 00:22 8.83911 -59.36659 33164 ft 439 kts 129°
2026-05-07 00:23 8.80096 -59.31887 33165 ft 439 kts 129°
2026-05-07 00:23 8.76275 -59.27107 33165 ft 439 kts 129°
2026-05-07 00:24 8.72438 -59.22306 33165 ft 439 kts 129°
2026-05-07 00:24 8.68621 -59.17530 33166 ft 439 kts 129°
2026-05-07 00:25 8.64782 -59.12726 33166 ft 439 kts 129°
2026-05-07 00:25 8.60964 -59.07946 33166 ft 439 kts 129°
2026-05-07 00:26 8.57124 -59.03138 33167 ft 439 kts 129°
2026-05-07 00:26 8.53297 -58.98346 33167 ft 439 kts 129°
2026-05-07 00:27 8.49470 -58.93553 33167 ft 439 kts 129°
2026-05-07 00:27 8.45655 -58.88773 33168 ft 439 kts 129°
2026-05-07 00:28 8.41828 -58.83979 33168 ft 439 kts 129°
2026-05-07 00:28 8.38001 -58.79182 33169 ft 439 kts 129°
2026-05-07 00:29 8.34183 -58.74397 33169 ft 439 kts 129°
2026-05-07 00:30 8.26516 -58.64786 33169 ft 440 kts 129°
2026-05-07 00:30 8.22695 -58.59994 33170 ft 440 kts 129°
2026-05-07 00:31 8.18864 -58.55189 33170 ft 440 kts 129°
2026-05-07 00:31 8.15042 -58.50395 33170 ft 440 kts 129°
2026-05-07 00:32 8.11206 -58.45582 33171 ft 440 kts 129°
2026-05-07 00:32 8.07371 -58.40770 33171 ft 440 kts 129°
2026-05-07 00:33 8.03541 -58.35963 33171 ft 440 kts 129°
2026-05-07 00:33 7.99736 -58.31187 33172 ft 440 kts 129°
2026-05-07 00:34 7.95891 -58.26360 33172 ft 440 kts 129°
2026-05-07 00:34 7.92070 -58.21562 33172 ft 440 kts 129°
2026-05-07 00:35 7.88229 -58.16738 33172 ft 440 kts 129°
2026-05-07 00:35 7.84396 -58.11924 33173 ft 440 kts 129°
2026-05-07 00:36 7.80571 -58.07119 33173 ft 440 kts 129°
2026-05-07 00:36 7.76749 -58.02317 33173 ft 440 kts 129°
2026-05-07 00:37 7.72921 -57.97507 33174 ft 440 kts 129°
2026-05-07 00:37 7.69094 -57.92697 33174 ft 440 kts 129°
2026-05-07 00:38 7.65271 -57.87910 33174 ft 440 kts 129°
2026-05-07 00:38 7.61409 -57.83137 33175 ft 440 kts 129°
2026-05-07 00:39 7.57554 -57.78370 33175 ft 440 kts 129°
2026-05-07 00:39 7.53680 -57.73578 33175 ft 440 kts 129°
2026-05-07 00:40 7.49823 -57.68807 33176 ft 440 kts 129°
2026-05-07 00:40 7.45962 -57.64030 33176 ft 441 kts 129°
2026-05-07 00:41 7.42098 -57.59250 33176 ft 441 kts 129°
2026-05-07 00:41 7.38214 -57.54443 33177 ft 441 kts 129°
2026-05-07 00:42 7.34330 -57.49642 33177 ft 441 kts 129°
2026-05-07 00:42 7.30441 -57.44870 33177 ft 441 kts 129°
2026-05-07 00:43 7.26562 -57.40109 33177 ft 441 kts 129°
2026-05-07 00:43 7.22656 -57.35314 33178 ft 441 kts 129°
2026-05-07 00:44 7.18790 -57.30568 33203 ft 440 kts 129°
2026-05-07 00:44 7.14904 -57.25798 32939 ft 447 kts 129°
2026-05-07 00:45 7.12915 -57.23355 32554 ft 452 kts 129°
2026-05-07 00:45 7.10935 -57.20923 32145 ft 444 kts 129°
2026-05-07 00:45 7.08985 -57.18530 31727 ft 436 kts 129°
2026-05-07 00:45 7.07075 -57.16184 31312 ft 429 kts 129°
2026-05-07 00:46 7.05206 -57.13888 30901 ft 423 kts 129°
2026-05-07 00:46 7.03360 -57.11620 30491 ft 417 kts 129°
2026-05-07 00:46 7.01542 -57.09388 30095 ft 411 kts 129°
2026-05-07 00:46 6.99723 -57.07153 29758 ft 404 kts 129°
2026-05-07 00:47 6.97982 -57.05014 29424 ft 397 kts 129°
2026-05-07 00:47 6.96245 -57.02880 29086 ft 391 kts 129°
2026-05-07 00:47 6.94521 -57.00763 28746 ft 385 kts 129°
2026-05-07 00:47 6.92819 -56.98713 28413 ft 381 kts 131°
2026-05-07 00:48 6.91104 -56.96704 28084 ft 378 kts 130°
2026-05-07 00:48 6.89378 -56.94681 27754 ft 377 kts 130°
2026-05-07 00:48 6.87679 -56.92690 27430 ft 376 kts 130°
2026-05-07 00:48 6.85994 -56.90715 27109 ft 375 kts 130°
2026-05-07 00:49 6.84296 -56.88723 26784 ft 374 kts 130°
2026-05-07 00:49 6.82615 -56.86752 26461 ft 372 kts 130°
2026-05-07 00:49 6.80929 -56.84775 26135 ft 371 kts 130°
2026-05-07 00:49 6.79258 -56.82816 25810 ft 369 kts 130°
2026-05-07 00:50 6.77608 -56.80881 25487 ft 367 kts 130°
2026-05-07 00:50 6.75946 -56.78931 25160 ft 365 kts 130°
2026-05-07 00:50 6.74312 -56.77015 24836 ft 363 kts 130°
2026-05-07 00:50 6.72665 -56.75082 24508 ft 361 kts 130°
2026-05-07 00:51 6.71042 -56.73179 24183 ft 359 kts 130°
2026-05-07 00:51 6.69409 -56.71263 23854 ft 357 kts 130°
2026-05-07 00:51 6.67810 -56.69387 23531 ft 356 kts 130°
2026-05-07 00:51 6.66219 -56.67520 23207 ft 354 kts 130°
2026-05-07 00:52 6.64616 -56.65639 22880 ft 352 kts 130°
2026-05-07 00:52 6.63042 -56.63793 22557 ft 350 kts 130°
2026-05-07 00:52 6.61451 -56.61925 22228 ft 348 kts 130°
2026-05-07 00:52 6.59896 -56.60100 21906 ft 347 kts 130°
2026-05-07 00:53 6.58321 -56.58252 21577 ft 345 kts 130°
2026-05-07 00:53 6.56785 -56.56448 21255 ft 343 kts 130°
2026-05-07 00:53 6.55230 -56.54624 20928 ft 341 kts 130°
2026-05-07 00:53 6.53704 -56.52833 20605 ft 340 kts 130°
2026-05-07 00:54 6.52174 -56.51036 20279 ft 338 kts 130°
2026-05-07 00:54 6.50638 -56.49234 19951 ft 336 kts 130°
2026-05-07 00:54 6.49136 -56.47470 19628 ft 335 kts 130°
2026-05-07 00:54 6.47617 -56.45686 19300 ft 333 kts 130°
2026-05-07 00:55 6.46125 -56.43934 18976 ft 331 kts 130°
2026-05-07 00:55 6.44628 -56.42176 18649 ft 330 kts 130°
2026-05-07 00:55 6.43151 -56.40442 18325 ft 328 kts 130°
2026-05-07 00:55 6.41668 -56.38701 17999 ft 326 kts 130°
2026-05-07 00:56 6.40215 -56.36995 17677 ft 325 kts 130°
2026-05-07 00:56 6.38744 -56.35267 17350 ft 323 kts 130°
2026-05-07 00:56 6.37291 -56.33561 17024 ft 321 kts 130°
2026-05-07 00:56 6.35854 -56.31873 16701 ft 320 kts 130°
2026-05-07 00:57 6.34401 -56.30166 16373 ft 318 kts 130°
2026-05-07 00:57 6.32977 -56.28493 16050 ft 317 kts 130°
2026-05-07 00:57 6.31539 -56.26805 15722 ft 315 kts 130°
2026-05-07 00:57 6.30136 -56.25156 15400 ft 314 kts 130°
2026-05-07 00:58 6.28722 -56.23495 15074 ft 312 kts 130°
2026-05-07 00:58 6.27316 -56.21843 14748 ft 311 kts 130°
2026-05-07 00:58 6.25915 -56.20197 14422 ft 309 kts 130°
2026-05-07 00:58 6.24518 -56.18555 14095 ft 308 kts 130°
2026-05-07 00:59 6.21758 -56.15312 13445 ft 305 kts 130°
2026-05-07 00:59 6.20396 -56.13712 13122 ft 303 kts 130°
2026-05-07 00:59 6.19023 -56.12098 12794 ft 302 kts 130°
2026-05-07 01:00 6.17670 -56.10508 12470 ft 300 kts 130°
2026-05-07 01:00 6.16323 -56.08925 12146 ft 299 kts 130°
2026-05-07 01:00 6.14985 -56.07353 11822 ft 297 kts 130°
2026-05-07 01:00 6.13634 -56.05765 11493 ft 296 kts 130°
2026-05-07 01:01 6.12310 -56.04208 11169 ft 294 kts 130°
2026-05-07 01:01 6.10994 -56.02662 10846 ft 293 kts 130°
2026-05-07 01:01 6.09667 -56.01102 10519 ft 291 kts 130°
2026-05-07 01:01 6.08357 -55.99562 10194 ft 290 kts 130°
2026-05-07 01:02 6.07047 -55.98021 9868 ft 289 kts 130°
2026-05-07 01:02 6.05758 -55.96507 9545 ft 288 kts 130°
2026-05-07 01:02 6.04452 -55.94971 9218 ft 286 kts 130°
2026-05-07 01:02 6.03168 -55.93461 8894 ft 285 kts 130°
2026-05-07 01:03 6.01876 -55.91942 8568 ft 284 kts 130°
2026-05-07 01:03 6.00602 -55.90444 8245 ft 283 kts 130°
2026-05-07 01:03 5.99328 -55.88946 7921 ft 282 kts 130°
2026-05-07 01:03 5.98064 -55.87460 7599 ft 282 kts 130°
2026-05-07 01:04 5.96780 -55.85950 7271 ft 281 kts 130°
2026-05-07 01:04 5.95524 -55.84473 6949 ft 280 kts 130°
2026-05-07 01:04 5.94265 -55.82991 6625 ft 279 kts 130°
2026-05-07 01:04 5.92998 -55.81501 6299 ft 279 kts 130°
2026-05-07 01:05 5.91746 -55.80029 5976 ft 278 kts 130°
2026-05-07 01:05 5.90502 -55.78566 5680 ft 276 kts 130°
2026-05-07 01:05 5.89258 -55.77103 5452 ft 272 kts 130°
2026-05-07 01:05 5.88038 -55.75668 5220 ft 268 kts 130°
2026-05-07 01:06 5.86840 -55.74259 4990 ft 265 kts 130°
2026-05-07 01:06 5.85653 -55.72863 4760 ft 262 kts 130°
2026-05-07 01:06 5.84471 -55.71472 4529 ft 259 kts 130°
2026-05-07 01:06 5.83306 -55.70101 4299 ft 257 kts 130°
2026-05-07 01:07 5.82156 -55.68749 4070 ft 254 kts 130°
2026-05-07 01:07 5.81017 -55.67409 3843 ft 252 kts 130°
2026-05-07 01:07 5.79889 -55.66082 3616 ft 250 kts 130°
2026-05-07 01:07 5.78754 -55.64746 3386 ft 248 kts 130°
2026-05-07 01:08 5.77641 -55.63437 3159 ft 247 kts 130°
2026-05-07 01:08 5.76526 -55.62125 3003 ft 242 kts 130°
2026-05-07 01:08 5.75472 -55.60885 2987 ft 231 kts 130°
2026-05-07 01:08 5.74442 -55.59672 2984 ft 223 kts 130°
2026-05-07 01:09 5.73452 -55.58508 2991 ft 220 kts 130°
2026-05-07 01:09 5.72455 -55.57335 2997 ft 219 kts 130°
2026-05-07 01:09 5.71477 -55.56184 2999 ft 219 kts 130°
2026-05-07 01:09 5.70481 -55.55011 3000 ft 219 kts 130°
2026-05-07 01:10 5.69483 -55.53837 3000 ft 220 kts 130°
2026-05-07 01:10 5.68502 -55.52682 2996 ft 217 kts 130°
2026-05-07 01:10 5.67523 -55.51531 2993 ft 213 kts 130°
2026-05-07 01:10 5.66575 -55.50415 2994 ft 211 kts 130°
2026-05-07 01:11 5.65620 -55.49291 2997 ft 210 kts 130°
2026-05-07 01:11 5.64665 -55.48167 2998 ft 210 kts 130°
2026-05-07 01:11 5.63724 -55.47060 2999 ft 210 kts 130°
2026-05-07 01:11 5.62785 -55.45954 2999 ft 210 kts 130°
2026-05-07 01:12 5.61832 -55.44832 2997 ft 206 kts 130°
2026-05-07 01:12 5.60925 -55.43765 2972 ft 197 kts 130°
2026-05-07 01:12 5.60039 -55.42722 2783 ft 198 kts 130°
2026-05-07 01:12 5.59151 -55.41677 2608 ft 197 kts 130°
2026-05-07 01:13 5.58257 -55.40624 2431 ft 196 kts 130°
2026-05-07 01:13 5.57375 -55.39585 2256 ft 196 kts 130°
2026-05-07 01:13 5.56497 -55.38552 2082 ft 195 kts 130°
2026-05-07 01:13 5.55615 -55.37511 1994 ft 189 kts 131°
2026-05-07 01:14 5.54535 -55.36882 1985 ft 179 kts 173°
2026-05-07 01:14 5.53315 -55.36901 2014 ft 177 kts 180°
2026-05-07 01:14 5.52075 -55.36925 1999 ft 176 kts 181°
2026-05-07 01:14 5.50861 -55.36941 2000 ft 176 kts 180°
2026-05-07 01:15 5.49651 -55.36952 2072 ft 173 kts 180°
2026-05-07 01:15 5.48426 -55.36958 2022 ft 174 kts 180°
2026-05-07 01:15 5.47242 -55.36961 1991 ft 169 kts 180°
2026-05-07 01:15 5.46086 -55.36845 1961 ft 166 kts 154°
2026-05-07 01:16 5.45270 -55.36069 2013 ft 164 kts 119°
2026-05-07 01:16 5.45078 -55.34968 2011 ft 163 kts 84°
2026-05-07 01:16 5.45131 -55.33859 2017 ft 157 kts 88°
2026-05-07 01:16 5.45161 -55.32773 1987 ft 153 kts 89°
2026-05-07 01:17 5.45179 -55.31739 2016 ft 145 kts 89°
2026-05-07 01:17 5.45190 -55.30750 1992 ft 138 kts 89°
2026-05-07 01:17 5.45199 -55.29798 1958 ft 133 kts 89°
2026-05-07 01:17 5.45206 -55.28873 1805 ft 132 kts 90°
2026-05-07 01:18 5.45212 -55.27958 1595 ft 131 kts 90°
2026-05-07 01:18 5.45218 -55.27047 1381 ft 129 kts 90°
2026-05-07 01:18 5.45224 -55.26157 1171 ft 128 kts 90°
2026-05-07 01:18 5.45229 -55.25264 962 ft 126 kts 90°
2026-05-07 01:19 5.45234 -55.24389 761 ft 126 kts 90°
2026-05-07 01:19 5.45240 -55.23518 605 ft 125 kts 90°
2026-05-07 01:19 5.45245 -55.22648 459 ft 125 kts 90°
2026-05-07 01:19 5.45250 -55.21766 320 ft 126 kts 90°
2026-05-07 01:20 5.45266 -55.20890 199 ft 126 kts 88°
2026-05-07 01:20 5.45275 -55.20013 54 ft 123 kts 90°
2026-05-07 01:20 5.45283 -55.19249 53 ft 94 kts 90°
2026-05-07 01:20 5.45285 -55.18853 56 ft 35 kts 89°
2026-05-07 01:21 5.45296 -55.18728 56 ft 5 kts 86°
2026-05-07 01:21 5.45293 -55.18719 56 ft 0 kts 148°
2026-05-07 01:21 5.45291 -55.18720 56 ft 0 kts 184°